This is the latest recevied weather packets stored in our database for station/object KD2SIG. If no packets are shown the sender has not sent any weather packets the latest 1 day(s).
| Time | Temp. | Humidity | Pressure | Rain* | Wind** | Luminosity | Snow |
|---|---|---|---|---|---|---|---|
| 1778006153 | 17.78° C | 78% | 1004.4 hPa | 0 mm | 2.24 m/s, 331° | 692 W/m² | - |
| 1778005851 | 17.78° C | 78% | 1004.5 hPa | 0 mm | 3.13 m/s, 272° | 231 W/m² | - |
| 1778005547 | 17.22° C | 79% | 1004.6 hPa | 0 mm | 2.24 m/s, 254° | 354 W/m² | - |
| 1778005244 | 17.22° C | 80% | 1004.6 hPa | 0 mm | 2.68 m/s, 247° | 677 W/m² | - |
| 1778004941 | 16.67° C | 82% | 1004.5 hPa | 0 mm | 3.13 m/s, 242° | 629 W/m² | - |
| 1778004638 | 16.11° C | 84% | 1004.5 hPa | 0 mm | 2.68 m/s, 285° | 635 W/m² | - |
| 1778004333 | 15.56° C | 85% | 1004.4 hPa | 0 mm | 1.34 m/s, 280° | 618 W/m² | - |
| 1778004032 | 15° C | 87% | 1004.7 hPa | 0 mm | 1.79 m/s, 234° | 872 W/m² | - |
| 1778003732 | 15° C | 88% | 1004.5 hPa | 0 mm | 0.89 m/s, 261° | 262 W/m² | - |
| 1778003429 | 14.44° C | 89% | 1004.6 hPa | 0 mm | 1.34 m/s, 290° | 292 W/m² | - |
| 1778003126 | 14.44° C | 88% | 1004.7 hPa | 0 mm | 1.79 m/s, 267° | 99 W/m² | - |
| 1778002822 | 13.89° C | 88% | 1004.5 hPa | 0 mm | 3.13 m/s, 242° | 138 W/m² | - |
| 1778002519 | 14.44° C | 87% | 1004.6 hPa | 0 mm | 4.47 m/s, 313° | 164 W/m² | - |
| 1778002216 | 14.44° C | 86% | 1004.3 hPa | 0 mm | 3.13 m/s, 312° | 242 W/m² | - |
| 1778001914 | 14.44° C | 87% | 1004.5 hPa | 1.27 mm | 2.24 m/s, 276° | 537 W/m² | - |
| 1778001609 | 14.44° C | 86% | 1004.4 hPa | 3.05 mm | 4.92 m/s, 297° | 297 W/m² | - |
| 1778001305 | 14.44° C | 87% | 1004.7 hPa | 4.83 mm | 3.58 m/s, 279° | 81 W/m² | - |
| 1778001002 | 14.44° C | 88% | 1004.7 hPa | 6.1 mm | 3.13 m/s, 261° | 42 W/m² | - |
| 1778000699 | 15° C | 87% | 1004.9 hPa | 6.1 mm | 1.34 m/s, 281° | 42 W/m² | - |
| 1778000394 | 15° C | 86% | 1004.8 hPa | 1.78 mm | 2.68 m/s, 283° | 54 W/m² | - |
| 1778000090 | 15° C | 85% | 1004.7 hPa | 1.27 mm | 4.02 m/s, 265° | 21 W/m² | - |
| 1777999786 | 15.56° C | 84% | 1004.5 hPa | 1.27 mm | 5.36 m/s, 300° | 74 W/m² | - |
| 1777999482 | 16.11° C | 82% | 1004.6 hPa | 0 mm | 4.02 m/s, 280° | 47 W/m² | - |
| 1777999180 | 16.11° C | 83% | 1004.3 hPa | 1.78 mm | 3.13 m/s, 277° | 22 W/m² | - |
| 1777998879 | 16.11° C | 82% | 1004.4 hPa | 1.78 mm | 4.02 m/s, 267° | 22 W/m² | - |
* Rain latest hour (hover to see other rain measurements)
** Current wind speed in m/s (hover to see current wind gust speed)